Météo par heure à Kista

Ce jour, 2 Mars, Mardi

Heure Température Précipitation Vent Pression Humidité
00:00 +3°C° 0 mm 4 m/s 764 mmHg 74%
01:00 +1°C° 0 mm 4 m/s 764 mmHg 76%
02:00 +1°C° 0 mm 4 m/s 764 mmHg 77%
03:00 +1°C° 0 mm 4 m/s 764 mmHg 79%
04:00 +1°C° 0 mm 4 m/s 764 mmHg 81%
05:00 +1°C° 0 mm 4 m/s 765 mmHg 81%
06:00 0°C° 0 mm 4 m/s 766 mmHg 82%
07:00 +1°C° 0 mm 3 m/s 766 mmHg 83%
08:00 +1°C° 0 mm 4 m/s 767 mmHg 77%
09:00 +3°C° 0 mm 4 m/s 767 mmHg 71%
10:00 +4°C° 0 mm 4 m/s 768 mmHg 64%
11:00 +5°C° 0 mm 4 m/s 768 mmHg 60%
12:00 +5°C° 0 mm 3 m/s 768 mmHg 56%
13:00 +7°C° 0 mm 3 m/s 769 mmHg 51%
14:00 +7°C° 0 mm 2 m/s 769 mmHg 53%
15:00 +6°C° 0 mm 2 m/s 768 mmHg 55%
16:00 +7°C° 0 mm 1 m/s 768 mmHg 56%
17:00 +6°C° 0 mm 1 m/s 768 mmHg 59%
18:00 +5°C° 0 mm 1 m/s 769 mmHg 62%
19:00 +4°C° 0 mm 1 m/s 769 mmHg 65%
20:00 +4°C° 0 mm 1 m/s 768 mmHg 67%
21:00 +3°C° 0 mm 2 m/s 768 mmHg 69%
22:00 +3°C° 0 mm 2 m/s 768 mmHg 70%
23:00 +2°C° 0 mm 2 m/s 768 mmHg 74%

Demain, 3 Mars, Mercredi

Heure Température Précipitation Vent Pression Humidité
00:00 +2°C° 0 mm 2 m/s 767 mmHg 78%
01:00 +2°C° 0 mm 2 m/s 767 mmHg 82%
02:00 +2°C° 0 mm 2 m/s 766 mmHg 84%
03:00 +1°C° 0 mm 2 m/s 765 mmHg 87%
04:00 +1°C° 0 mm 2 m/s 765 mmHg 89%
05:00 +1°C° 0 mm 2 m/s 764 mmHg 91%
06:00 +1°C° 0 mm 2 m/s 764 mmHg 92%
07:00 -1°C° 0 mm 2 m/s 763 mmHg 93%
08:00 +1°C° 0 mm 2 m/s 763 mmHg 89%
09:00 +3°C° 0 mm 2 m/s 762 mmHg 84%
10:00 +4°C° 0 mm 2 m/s 762 mmHg 80%
11:00 +4°C° 0 mm 2 m/s 761 mmHg 77%
12:00 +5°C° 0 mm 2 m/s 761 mmHg 74%
13:00 +5°C° 0 mm 3 m/s 760 mmHg 71%
14:00 +5°C° 0 mm 3 m/s 759 mmHg 73%
15:00 +5°C° 0 mm 3 m/s 758 mmHg 74%
16:00 +5°C° 0 mm 3 m/s 758 mmHg 76%
17:00 +4°C° 0 mm 3 m/s 757 mmHg 80%
18:00 +4°C° 0 mm 2 m/s 757 mmHg 83%
19:00 +3°C° 0 mm 2 m/s 756 mmHg 87%
20:00 +2°C° 0 mm 3 m/s 756 mmHg 85%
21:00 +2°C° 0 mm 3 m/s 756 mmHg 83%
22:00 +1°C° 0 mm 4 m/s 756 mmHg 81%
23:00 0°C° 0 mm 4 m/s 756 mmHg 73%

Après-demain, 4 Mars, Jeudi

Heure Température Précipitation Vent Pression Humidité
00:00 -1°C° 0 mm 4 m/s 756 mmHg 65%
01:00 -2°C° 0 mm 4 m/s 756 mmHg 56%
02:00 -2°C° 0 mm 4 m/s 756 mmHg 58%
03:00 -3°C° 0 mm 4 m/s 756 mmHg 60%
04:00 -4°C° 0 mm 3 m/s 756 mmHg 62%
05:00 -4°C° 0 mm 4 m/s 757 mmHg 63%
06:00 -4°C° 0 mm 4 m/s 757 mmHg 64%
07:00 -4°C° 0 mm 4 m/s 757 mmHg 65%
08:00 -3°C° 0 mm 4 m/s 757 mmHg 63%
09:00 -2°C° 0 mm 4 m/s 757 mmHg 61%
10:00 -2°C° 0 mm 4 m/s 757 mmHg 59%
11:00 -1°C° 0 mm 4 m/s 757 mmHg 55%
12:00 0°C° 0 mm 4 m/s 757 mmHg 51%
13:00 0°C° 0 mm 4 m/s 757 mmHg 47%
14:00 0°C° 0 mm 4 m/s 757 mmHg 48%
15:00 +1°C° 0 mm 3 m/s 757 mmHg 48%
16:00 +1°C° 0 mm 3 m/s 757 mmHg 49%
17:00 0°C° 0 mm 3 m/s 757 mmHg 53%
18:00 -1°C° 0 mm 2 m/s 757 mmHg 57%
19:00 -3°C° 0 mm 2 m/s 757 mmHg 62%
20:00 -3°C° 0 mm 2 m/s 757 mmHg 63%
21:00 -3°C° 0 mm 2 m/s 758 mmHg 64%
22:00 -1°C° 0 mm 1 m/s 758 mmHg 65%
23:00 -1°C° 0 mm 1 m/s 758 mmHg 70%

5 Mars, Vendredi

Heure Température Précipitation Vent Pression Humidité
00:00 -1°C° 0 mm 1 m/s 758 mmHg 75%
01:00 -4°C° 0 mm 2 m/s 758 mmHg 80%
02:00 -4°C° 0 mm 2 m/s 759 mmHg 81%
03:00 -4°C° 0 mm 2 m/s 759 mmHg 81%
04:00 -4°C° 0 mm 2 m/s 759 mmHg 81%
05:00 -5°C° 0 mm 3 m/s 759 mmHg 78%
06:00 -5°C° 0 mm 3 m/s 759 mmHg 75%
07:00 -5°C° 0 mm 4 m/s 760 mmHg 73%
08:00 -4°C° 0 mm 4 m/s 760 mmHg 64%
09:00 -3°C° 0 mm 4 m/s 760 mmHg 56%
10:00 -3°C° 0 mm 4 m/s 761 mmHg 48%
11:00 -3°C° 0 mm 4 m/s 761 mmHg 46%
12:00 -2°C° 0 mm 4 m/s 762 mmHg 45%
13:00 -2°C° 0 mm 4 m/s 762 mmHg 43%
14:00 -2°C° 0 mm 4 m/s 762 mmHg 44%
15:00 -1°C° 0 mm 3 m/s 763 mmHg 45%
16:00 -2°C° 0 mm 3 m/s 763 mmHg 47%
17:00 -2°C° 0 mm 2 m/s 763 mmHg 50%
18:00 -3°C° 0 mm 2 m/s 763 mmHg 54%
19:00 -2°C° 0 mm 1 m/s 764 mmHg 57%
20:00 -2°C° 0 mm 1 m/s 764 mmHg 56%
21:00 -2°C° 0 mm 1 m/s 764 mmHg 56%
22:00 -2°C° 0 mm 1 m/s 764 mmHg 55%
23:00 -4°C° 0 mm 2 m/s 764 mmHg 56%

6 Mars, Samedi

Heure Température Précipitation Vent Pression Humidité
00:00 -4°C° 0 mm 2 m/s 764 mmHg 57%
01:00 -5°C° 0 mm 3 m/s 764 mmHg 58%
02:00 -5°C° 0 mm 3 m/s 763 mmHg 61%
03:00 -5°C° 0 mm 3 m/s 763 mmHg 63%
04:00 -5°C° 0 mm 4 m/s 762 mmHg 66%
05:00 -5°C° 0 mm 4 m/s 762 mmHg 60%
06:00 -5°C° 0 mm 5 m/s 761 mmHg 55%
07:00 -4°C° 0 mm 6 m/s 760 mmHg 49%
08:00 -3°C° 0.1 mm 6 m/s 760 mmHg 47%
09:00 -2°C° 0.1 mm 7 m/s 759 mmHg 45%
10:00 -1°C° 0.1 mm 8 m/s 758 mmHg 43%
11:00 0°C° 0 mm 7 m/s 758 mmHg 44%
12:00 0°C° 0 mm 7 m/s 758 mmHg 45%
13:00 +2°C° 0 mm 7 m/s 757 mmHg 45%
14:00 +2°C° 0 mm 7 m/s 757 mmHg 46%
15:00 +2°C° 0 mm 7 m/s 757 mmHg 47%
16:00 +2°C° 0 mm 6 m/s 756 mmHg 48%
17:00 +1°C° 0 mm 6 m/s 756 mmHg 51%
18:00 +1°C° 0 mm 6 m/s 756 mmHg 53%
19:00 -1°C° 0 mm 6 m/s 756 mmHg 55%
20:00 -1°C° 0 mm 6 m/s 756 mmHg 57%
21:00 -1°C° 0 mm 6 m/s 756 mmHg 58%
22:00 -1°C° 0 mm 6 m/s 756 mmHg 60%
23:00 -1°C° 0 mm 6 m/s 756 mmHg 60%

7 Mars, Dimanche

Heure Température Précipitation Vent Pression Humidité
00:00 0°C° 0 mm 5 m/s 756 mmHg 60%
01:00 0°C° 0 mm 5 m/s 755 mmHg 60%
02:00 -1°C° 0 mm 5 m/s 755 mmHg 60%
03:00 -1°C° 0 mm 5 m/s 754 mmHg 60%
04:00 -1°C° 0 mm 5 m/s 754 mmHg 60%
05:00 -1°C° 0 mm 5 m/s 753 mmHg 63%
06:00 -2°C° 0 mm 5 m/s 753 mmHg 66%
07:00 -2°C° 0 mm 4 m/s 752 mmHg 69%
08:00 -1°C° 0 mm 4 m/s 752 mmHg 66%
09:00 0°C° 0 mm 4 m/s 751 mmHg 64%
10:00 +1°C° 0 mm 4 m/s 751 mmHg 61%
11:00 +1°C° 0 mm 4 m/s 751 mmHg 64%
12:00 +1°C° 0 mm 4 m/s 751 mmHg 68%
13:00 +1°C° 0 mm 4 m/s 751 mmHg 72%
14:00 +1°C° 0.1 mm 3 m/s 751 mmHg 76%
15:00 +1°C° 0.1 mm 3 m/s 752 mmHg 79%
16:00 0°C° 0.1 mm 3 m/s 752 mmHg 83%
17:00 -1°C° 0 mm 3 m/s 752 mmHg 77%
18:00 -1°C° 0 mm 3 m/s 753 mmHg 71%
19:00 -2°C° 0 mm 3 m/s 753 mmHg 65%
20:00 -2°C° 0 mm 3 m/s 754 mmHg 65%
21:00 -4°C° 0 mm 3 m/s 754 mmHg 65%
22:00 -4°C° 0 mm 4 m/s 755 mmHg 65%
23:00 -5°C° 0 mm 4 m/s 756 mmHg 63%
Voir plus

Nous avons besoin de votre consentement

Meteoprog et ses fournisseurs de services peuvent stocker et accéder à des données personnelles telles que des cookies, des identifiants d'appareils ou d'autres technologies similaires sur votre appareil et traiter ces données pour personnaliser le contenu et les publicités, ainsi que pour fournir des fonctionnalités de médias sociaux et analyser le trafic.

  • Stocker et/ou accéder à des informations sur votre appareil

    Des cookies, des identifiants d'appareils ou d'autres informations peuvent être stockés ou accessibles sur votre appareil aux fins indiquées ci-dessus.

  • Annonces et contenus personnalisés, mesure des annonces et des contenus, connaissance de l'audience et développement de produits

    Les annonces et le contenu peuvent être personnalisés en fonction d'un profil. D'autres données peuvent être ajoutées pour mieux personnaliser les annonces et le contenu. Les performances des publicités et du contenu peuvent être mesurées. Il est possible d'obtenir des informations sur le public qui a vu les publicités et le contenu. Ces données peuvent être utilisées pour développer ou améliorer l'expérience de l'utilisateur, les systèmes et les logiciels.

En cliquant sur "J'accepte", vous autorisez l'utilisation de cookies, des identifiants d'appareils, des balises web ou d'autres technologies similaires. Vos paramètres peuvent être modifiés dans le navigateur de votre appareil.

Dans certains cas, des intérêts légitimes peuvent être invoqués plutôt qu'un consentement. Vous pouvez en savoir plus à ce sujet dans notre Politique de confidentialité et de cookies.